星链-30863 (STARLINK-30863 )

导读

STARLINK-30863是美国太空探索技术公司SpaceX星链互联网星座的卫星,于2024年2月25日发射入轨,归属美国。星链星座旨在为全球提供低延迟、高速率的卫星互联网服务,该卫星的发射进一步扩充了星链低轨卫星星座规模,助力覆盖更多区域,提升星座整体网络服务能力。

基本信息
目录编号:
59027
目录名称:
STARLINK-30863
国际标识:
2024-038E
轨道中心:
EARTH
卫星名称:
星链-30863
卫星全名:
星链-30863 (STARLINK-30863 )
卫星状态:
在轨 (已飞行929 天)
发射日期:
2024-02-25 UTC
国别 :
美国 (US)
星等 :
--
该卫星已列入 空间交会检测服务 Space Conjunction Data Service (SCDS) ,当前飞行风险评估等级: 无高风险
轨道信息
数据来源 国际轨道数据
星历时间: 2026-09-11T03:17:24+0800
20小时前
查看轨道信息
半长轴: 6861.179km
偏心率: 0.0001403
轨道倾角: 43.004°
近地点辐角 268.616°
升交点赤经 62.034°
平近点角 91.453°
近地点: 482.079km
远地点: 484.005km
周期: 94.267分钟
每日圈数: 15.275825
详细信息
固有亮度:
5
最大亮度:
0.3
卫星平台:
Starlink v2.0 mini
覆盖范围:
全球
运营商:
太空探索技术公司
运营商所在国:
美国
制造商(研发单位):
太空探索技术公司
制造商所在国:
美国
使用方式:
暂无
卫星简介
星链(Starlink)计划是由太空探索技术公司(SpaceX)提出的一个巨型低轨卫星互联网星座项目,计划在2019年至2024年间在太空搭建由约1.2万颗卫星组成的“星链”网络,其中1584颗将部署在地球上空550千米处的近地轨道,并从2020年开始工作。该卫星仍在工作。
2D轨道图
3D轨道图
轨道高度分析图
轨道倾角分析图
轨道综合分析图
查看轨道综合分析图
交会数据列表
事件ID 空间交会对象 最接近时刻(TCA) 交会距离 交会风险概率(CRP) 交会风险指数(CRI) 操作
CDM_260913-221405-902706-377421
2026-09-13T
22:14:39+0000
0.626 km
远距离
2.589721E-5 中风险 0.63
CDM_260913-112505-902706-292621
2026-09-13T
11:25:12+0000
0.953 km
远距离
2.08811E-5 中风险 0.61
CDM_260913-230105-902706-377421
2026-09-13T
23:01:44+0000
1.049 km
极远距离
4.635471E-6 低风险 0.48
CDM_260913-150805-902706-314821
2026-09-13T
15:08:32+0000
1.398 km
极远距离
1.663069E-6 低风险 0.39
CDM_260913-182805-902706-292621
2026-09-13T
18:28:52+0000
2.326 km
极远距离
1.402008E-6 低风险 0.38
CDM_260913-095105-902706-292621
2026-09-13T
09:51:03+0000
2.781 km
极远距离
1.043456E-6 低风险 0.35
CDM_260913-155505-902706-314821
2026-09-13T
15:55:36+0000
1.820 km
极远距离
8.139817E-7 极低风险 0.33
CDM_260913-234805-902706-377421
2026-09-13T
23:48:49+0000
2.740 km
极远距离
4.254529E-7 极低风险 0.28
与全量物体交会距离演化趋势
与全量物体交会风险概率演化趋势